| time (UTC) | temp F | wind direction | speed knots | gust knots | rain 1hr in | rain 24hr in | rain mn in | humidity % | barometer mb |
| 20260506134128 | 48 | 341 | 0.0 | 0.0 | 0.00 | 0.26 | 0.26 | 87 | 1005.3 |
| 20260506133625 | 48 | 342 | 0.9 | 0.9 | 0.00 | 0.26 | 0.26 | 89 | 1005.1 |
| 20260506133122 | 47 | 342 | 0.9 | 0.9 | 0.00 | 0.26 | 0.26 | 91 | 1005.2 |
| 20260506132620 | 47 | 342 | 0.9 | 1.7 | 0.00 | 0.26 | 0.26 | 93 | 1005.3 |
| 20260506132116 | 47 | 342 | 0.0 | 0.0 | 0.00 | 0.26 | 0.26 | 95 | 1005.1 |
| 20260506131614 | 47 | 342 | 0.0 | 0.0 | 0.00 | 0.26 | 0.26 | 96 | 1005.3 |
| 20260506131110 | 46 | 342 | 0.0 | 0.0 | 0.00 | 0.26 | 0.26 | 96 | 1005.0 |
| 20260506130607 | 47 | 342 | 0.0 | 0.0 | 0.00 | 0.26 | 0.26 | 97 | 1005.1 |
| 20260506130104 | 47 | 342 | 0.0 | 0.0 | 0.00 | 0.26 | 0.26 | 97 | 1004.8 |
| 20260506125603 | 46 | 342 | 0.0 | 0.0 | 0.00 | 0.26 | 0.26 | 97 | 1004.4 |
| 20260506125100 | 46 | 342 | 0.0 | 0.0 | 0.00 | 0.26 | 0.26 | 98 | 1004.9 |
| 20260506124557 | 46 | 342 | 0.0 | 0.0 | 0.00 | 0.26 | 0.26 | 98 | 1004.5 |
| 20260506124055 | 46 | 342 | 0.0 | 0.0 | 0.00 | 0.26 | 0.26 | 98 | 1004.3 |
| 20260506123553 | 46 | 342 | 0.0 | 0.0 | 0.00 | 0.26 | 0.26 | 98 | 1004.2 |
| 20260506123051 | 46 | 342 | 0.0 | 0.0 | 0.00 | 0.26 | 0.26 | 98 | 1004.6 |
| 20260506122547 | 46 | 342 | 0.0 | 0.0 | 0.00 | 0.26 | 0.26 | 98 | 1004.5 |
| 20260506122046 | 46 | 342 | 0.0 | 0.0 | 0.00 | 0.26 | 0.26 | 98 | 1004.2 |
| 20260506121543 | 46 | 343 | 0.0 | 0.0 | 0.00 | 0.26 | 0.26 | 98 | 1004.4 |
| 20260506121038 | 46 | 343 | 0.0 | 0.0 | 0.00 | 0.26 | 0.26 | 98 | 1004.7 |
| 20260506120537 | 45 | 343 | 0.0 | 0.0 | 0.00 | 0.26 | 0.26 | 98 | 1004.4 |
| 20260506120034 | 45 | 343 | 0.0 | 0.0 | 0.00 | 0.26 | 0.26 | 98 | 1004.0 |
| 20260506115532 | 45 | 343 | 0.0 | 0.0 | 0.00 | 0.26 | 0.26 | 98 | 1004.2 |
| 20260506115030 | 45 | 343 | 0.0 | 0.0 | 0.00 | 0.26 | 0.26 | 98 | 1004.4 |
| 20260506114527 | 45 | 343 | 0.0 | 0.0 | 0.00 | 0.26 | 0.26 | 98 | 1004.2 |
| 20260506114026 | 45 | 343 | 0.0 | 0.0 | 0.00 | 0.26 | 0.26 | 98 | 1004.3 |
| 20260506113523 | 45 | 343 | 0.0 | 0.0 | 0.00 | 0.26 | 0.26 | 98 | 1004.1 |
| 20260506113020 | 45 | 343 | 0.0 | 0.0 | 0.00 | 0.26 | 0.26 | 98 | 1003.9 |
| 20260506112517 | 45 | 343 | 0.0 | 0.0 | 0.00 | 0.26 | 0.26 | 98 | 1004.0 |
| 20260506112014 | 45 | 343 | 0.0 | 0.0 | 0.00 | 0.26 | 0.26 | 98 | 1004.1 |
| 20260506111512 | 45 | 343 | 0.0 | 0.0 | 0.00 | 0.26 | 0.26 | 98 | 1003.7 |
| 20260506111009 | 45 | 343 | 0.0 | 0.0 | 0.00 | 0.26 | 0.26 | 98 | 1004.0 |
| 20260506110507 | 45 | 343 | 0.0 | 0.0 | 0.00 | 0.26 | 0.26 | 98 | 1003.8 |
| 20260506110004 | 45 | 343 | 0.0 | 0.0 | 0.00 | 0.26 | 0.26 | 98 | 1003.5 |
| 20260506105459 | 44 | 343 | 0.0 | 0.0 | 0.00 | 0.26 | 0.26 | 98 | 1003.9 |
| 20260506104957 | 44 | 343 | 0.0 | 0.0 | 0.00 | 0.26 | 0.26 | 98 | 1003.4 |
| 20260506104455 | 44 | 343 | 0.0 | 0.0 | 0.00 | 0.26 | 0.26 | 98 | 1003.0 |
| 20260506103953 | 44 | 343 | 0.9 | 1.7 | 0.00 | 0.26 | 0.26 | 98 | 1003.3 |
| 20260506103449 | 44 | 339 | 0.9 | 1.7 | 0.00 | 0.26 | 0.26 | 98 | 1003.4 |
| 20260506102946 | 44 | 339 | 0.9 | 0.9 | 0.00 | 0.26 | 0.26 | 98 | 1003.6 |
| 20260506102444 | 45 | 339 | 0.9 | 0.9 | 0.00 | 0.26 | 0.26 | 98 | 1003.4 |
| 20260506101941 | 45 | 339 | 0.9 | 0.9 | 0.00 | 0.26 | 0.26 | 98 | 1003.3 |
| 20260506101438 | 44 | 339 | 0.0 | 0.0 | 0.00 | 0.26 | 0.26 | 98 | 1003.3 |
| 20260506100935 | 44 | 339 | 0.0 | 0.0 | 0.00 | 0.26 | 0.26 | 98 | 1002.9 |
| 20260506100433 | 44 | 339 | 0.0 | 0.0 | 0.07 | 0.26 | 0.26 | 98 | 1002.6 |
| 20260506095931 | 44 | 340 | 0.0 | 0.0 | 0.07 | 0.26 | 0.26 | 98 | 1002.6 |
| 20260506095429 | 44 | 340 | 0.0 | 0.0 | 0.00 | 0.25 | 0.25 | 98 | 1002.5 |
| 20260506094925 | 44 | 340 | 0.0 | 0.0 | 0.00 | 0.25 | 0.25 | 98 | 1002.6 |
| 20260506094424 | 44 | 340 | 0.0 | 0.0 | 0.00 | 0.25 | 0.25 | 98 | 1002.9 |
| 20260506093921 | 44 | 340 | 0.0 | 0.9 | 0.00 | 0.25 | 0.25 | 98 | 1003.1 |
| 20260506093419 | 44 | 339 | 0.9 | 1.7 | 0.00 | 0.25 | 0.25 | 98 | 1003.4 |
| 20260506092917 | 44 | 322 | 0.0 | 0.9 | 0.00 | 0.25 | 0.25 | 98 | 1003.7 |
| 20260506092415 | 45 | 321 | 0.9 | 1.7 | 0.00 | 0.25 | 0.25 | 98 | 1003.7 |
| 20260506091911 | 45 | 316 | 2.6 | 2.6 | 0.00 | 0.25 | 0.25 | 98 | 1003.6 |
| 20260506091409 | 45 | 354 | 0.9 | 1.7 | 0.07 | 0.25 | 0.25 | 98 | 1003.7 |
| 20260506090906 | 45 | 5 | 0.9 | 1.7 | 0.07 | 0.25 | 0.25 | 98 | 1003.7 |
| 20260506090403 | 45 | 13 | 0.0 | 0.0 | 0.00 | 0.24 | 0.24 | 98 | 1003.4 |
| 20260506085900 | 45 | 13 | 0.0 | 0.0 | 0.00 | 0.24 | 0.24 | 98 | 1003.1 |
| 20260506085356 | 45 | 13 | 0.0 | 0.0 | 0.00 | 0.24 | 0.24 | 98 | 1003.2 |
| 20260506084853 | 46 | 13 | 0.0 | 0.0 | 0.00 | 0.24 | 0.24 | 98 | 1003.3 |
| 20260506084350 | 46 | 14 | 0.0 | 0.0 | 0.00 | 0.24 | 0.24 | 98 | 1003.0 |
| 20260506083846 | 46 | 14 | 0.0 | 0.0 | 0.05 | 0.24 | 0.24 | 98 | 1002.9 |
| 20260506083344 | 46 | 14 | 0.0 | 0.9 | 0.05 | 0.24 | 0.24 | 98 | 1002.9 |
| 20260506082841 | 46 | 15 | 0.0 | 0.0 | 0.00 | 0.23 | 0.23 | 98 | 1002.9 |
| 20260506082338 | 46 | 15 | 0.0 | 0.0 | 0.07 | 0.23 | 0.23 | 98 | 1003.2 |
| 20260506081833 | 45 | 15 | 0.0 | 0.0 | 0.12 | 0.23 | 0.23 | 98 | 1003.3 |
| 20260506081332 | 45 | 15 | 0.0 | 0.0 | 0.12 | 0.22 | 0.22 | 98 | 1003.5 |
| 20260506080829 | 45 | 15 | 0.0 | 0.0 | 0.12 | 0.21 | 0.21 | 98 | 1003.5 |
| 20260506080325 | 46 | 14 | 0.0 | 0.0 | 0.12 | 0.20 | 0.20 | 98 | 1003.2 |
| 20260506073310 | 46 | 14 | 0.0 | 0.0 | 0.05 | 0.16 | 0.16 | 98 | 1003.3 |
| 20260506072806 | 46 | 15 | 0.0 | 0.0 | 0.05 | 0.16 | 0.16 | 98 | 1003.2 |
| 20260506072305 | 46 | 15 | 0.0 | 0.0 | 0.07 | 0.15 | 0.15 | 98 | 1002.7 |
| 20260506071802 | 46 | 14 | 0.0 | 0.0 | 0.12 | 0.15 | 0.15 | 98 | 1003.1 |
| 20260506071300 | 46 | 14 | 0.0 | 0.0 | 0.05 | 0.14 | 0.14 | 98 | 1003.1 |
| 20260506070756 | 46 | 15 | 0.0 | 0.0 | 0.00 | 0.13 | 0.13 | 98 | 1003.2 |
| 20260506070253 | 46 | 15 | 0.0 | 0.0 | 0.00 | 0.13 | 0.13 | 97 | 1002.9 |
| 20260506062230 | 46 | 15 | 0.0 | 0.0 | 0.07 | 0.12 | 0.12 | 97 | 1003.3 |
| 20260506061726 | 46 | 15 | 0.0 | 0.0 | 0.07 | 0.12 | 0.12 | 97 | 1003.3 |
| 20260506061224 | 46 | 15 | 0.0 | 0.0 | 0.05 | 0.11 | 0.11 | 97 | 1003.3 |
| 20260506060722 | 46 | 15 | 0.0 | 0.0 | 0.05 | 0.11 | 0.11 | 97 | 1003.1 |
| 20260506060219 | 46 | 15 | 0.0 | 0.0 | 0.07 | 0.10 | 0.10 | 97 | 1003.1 |
| 20260506051151 | 46 | 15 | 0.0 | 0.0 | 0.05 | 0.05 | 0.05 | 96 | 1003.4 |
| 20260506050649 | 46 | 15 | 0.0 | 0.0 | 0.05 | 0.05 | 0.05 | 97 | 1003.5 |
| 20260506050146 | 46 | 15 | 0.0 | 0.0 | 0.07 | 0.04 | 0.04 | 97 | 1003.6 |
| 20260506044637 | 47 | 350 | 0.0 | 0.0 | 0.05 | 0.03 | 0.03 | 97 | 1003.7 |
| 20260506044134 | 47 | 350 | 0.0 | 0.0 | 0.00 | 0.02 | 0.02 | 97 | 1003.6 |
| 20260506043631 | 47 | 350 | 0.0 | 0.0 | 0.00 | 0.02 | 0.02 | 97 | 1003.7 |
| 20260506043129 | 47 | 350 | 0.0 | 0.0 | 0.07 | 0.02 | 0.02 | 97 | 1003.7 |
| 20260506042628 | 47 | 350 | 0.9 | 0.9 | 0.07 | 0.02 | 0.02 | 97 | 1003.7 |
| 20260506042125 | 47 | 351 | 0.0 | 0.0 | 0.00 | 0.01 | 0.01 | 97 | 1003.6 |
| 20260506041624 | 47 | 350 | 0.0 | 0.0 | 0.00 | 0.01 | 0.01 | 98 | 1003.8 |
| 20260506041120 | 47 | 350 | 0.0 | 1.7 | 0.05 | 0.01 | 0.01 | 98 | 1004.1 |
| 20260506040618 | 47 | 354 | 0.0 | 0.9 | 0.05 | 0.01 | 0.01 | 98 | 1003.7 |
| 20260506040114 | 48 | 355 | 0.9 | 1.7 | 0.07 | 0.00 | 0.00 | 98 | 1004.0 |
| 20260506035611 | 48 | 359 | 2.6 | 4.3 | 0.07 | 0.95 | 0.95 | 98 | 1004.0 |
| 20260506035108 | 48 | 19 | 1.7 | 1.7 | 0.07 | 0.94 | 0.94 | 98 | 1004.1 |
| 20260506034605 | 48 | 19 | 0.9 | 0.9 | 0.07 | 0.94 | 0.94 | 98 | 1004.2 |
| 20260506034102 | 48 | 20 | 0.0 | 0.0 | 0.05 | 0.93 | 0.93 | 98 | 1004.3 |
| 20260506033559 | 48 | 21 | 0.0 | 0.0 | 0.05 | 0.93 | 0.93 | 98 | 1004.2 |
| 20260506033056 | 48 | 21 | 0.9 | 0.9 | 0.07 | 0.92 | 0.92 | 98 | 1004.5 |
| 20260506032553 | 48 | 40 | 0.9 | 0.9 | 0.07 | 0.92 | 0.92 | 98 | 1004.2 |
| 20260506032050 | 49 | 43 | 0.0 | 0.0 | 0.05 | 0.91 | 0.91 | 98 | 1004.4 |
| 20260506031548 | 49 | 43 | 0.0 | 0.0 | 0.12 | 0.91 | 0.91 | 98 | 1004.4 |
| 20260506031044 | 49 | 44 | 0.0 | 0.0 | 0.12 | 0.90 | 0.90 | 98 | 1004.2 |
| 20260506030543 | 49 | 44 | 0.0 | 0.0 | 0.17 | 0.89 | 0.89 | 98 | 1004.1 |
| 20260506030040 | 49 | 44 | 0.0 | 0.0 | 0.19 | 0.88 | 0.88 | 98 | 1004.5 |
| 20260506025537 | 49 | 44 | 0.0 | 0.0 | 0.12 | 0.86 | 0.86 | 98 | 1004.5 |
| 20260506025032 | 49 | 44 | 0.0 | 0.0 | 0.24 | 0.85 | 0.85 | 98 | 1004.4 |
| 20260506024530 | 49 | 44 | 0.0 | 0.0 | 0.19 | 0.83 | 0.83 | 98 | 1004.4 |
| 20260506024026 | 49 | 44 | 0.0 | 0.0 | 0.12 | 0.81 | 0.81 | 98 | 1004.3 |
| 20260506023522 | 49 | 44 | 0.0 | 0.0 | 0.12 | 0.80 | 0.80 | 98 | 1004.3 |
| 20260506023020 | 49 | 44 | 0.0 | 0.0 | 0.12 | 0.79 | 0.79 | 98 | 1003.9 |
| 20260506022517 | 49 | 45 | 0.0 | 0.0 | 0.12 | 0.77 | 0.77 | 98 | 1003.9 |
| 20260506022015 | 49 | 46 | 0.0 | 0.0 | 0.12 | 0.76 | 0.76 | 98 | 1003.9 |
| 20260506021512 | 49 | 46 | 0.0 | 0.0 | 0.12 | 0.75 | 0.75 | 98 | 1004.0 |
| 20260506021009 | 49 | 47 | 0.0 | 0.0 | 0.12 | 0.74 | 0.74 | 97 | 1003.6 |
| 20260506020507 | 49 | 47 | 0.0 | 0.0 | 0.12 | 0.73 | 0.73 | 97 | 1003.7 |
| 20260506020004 | 49 | 47 | 0.0 | 0.0 | 0.19 | 0.72 | 0.72 | 97 | 1003.6 |
| 20260506015501 | 49 | 47 | 0.0 | 0.0 | 0.26 | 0.71 | 0.71 | 97 | 1003.5 |
| 20260506014958 | 49 | 47 | 0.0 | 0.9 | 0.17 | 0.69 | 0.69 | 97 | 1003.4 |
| 20260506014455 | 49 | 48 | 0.0 | 0.0 | 0.12 | 0.67 | 0.67 | 97 | 1003.7 |
| 20260506013951 | 49 | 48 | 0.0 | 0.0 | 0.12 | 0.66 | 0.66 | 97 | 1003.7 |
| 20260506013449 | 49 | 48 | 0.0 | 0.0 | 0.12 | 0.65 | 0.65 | 97 | 1003.8 |
| 20260506012945 | 49 | 48 | 0.0 | 0.0 | 0.12 | 0.64 | 0.64 | 97 | 1003.6 |
| 20260506012442 | 49 | 48 | 0.0 | 0.0 | 0.05 | 0.63 | 0.63 | 97 | 1003.8 |
| 20260506011939 | 49 | 48 | 0.0 | 0.0 | 0.00 | 0.62 | 0.62 | 97 | 1003.7 |
| 20260506011436 | 49 | 53 | 0.0 | 0.0 | 0.07 | 0.62 | 0.62 | 97 | 1003.5 |
| 20260506010933 | 49 | 53 | 0.9 | 1.7 | 0.07 | 0.62 | 0.62 | 97 | 1003.5 |
| 20260506010432 | 49 | 53 | 0.9 | 1.7 | 0.00 | 0.61 | 0.61 | 97 | 1003.5 |
| 20260506005927 | 49 | 55 | 0.0 | 0.0 | 0.00 | 0.61 | 0.61 | 97 | 1003.5 |
| 20260506005426 | 49 | 56 | 0.0 | 0.0 | 0.00 | 0.61 | 0.61 | 97 | 1003.4 |
| 20260506004920 | 49 | 50 | 1.7 | 1.7 | 0.05 | 0.61 | 0.61 | 97 | 1003.2 |
| 20260506004419 | 49 | 102 | 0.9 | 2.6 | 0.12 | 0.61 | 0.61 | 97 | 1003.2 |
| 20260506003914 | 49 | 13 | 1.7 | 1.7 | 0.19 | 0.60 | 0.60 | 97 | 1003.4 |
| 20260506003411 | 49 | 56 | 0.0 | 0.9 | 0.19 | 0.59 | 0.59 | 97 | 1003.6 |
| 20260506002908 | 49 | 60 | 0.0 | 1.7 | 0.19 | 0.57 | 0.57 | 97 | 1002.9 |
| 20260506002404 | 49 | 26 | 0.0 | 0.0 | 0.24 | 0.56 | 0.56 | 97 | 1003.1 |
| 20260506001859 | 49 | 19 | 0.0 | 0.0 | 0.12 | 0.54 | 0.54 | 97 | 1003.0 |
| 20260506001356 | 49 | 20 | 0.9 | 1.7 | 0.05 | 0.52 | 0.52 | 97 | 1002.9 |
| 20260506000854 | 49 | 358 | 0.0 | 0.0 | 0.05 | 0.52 | 0.52 | 97 | 1003.1 |
| 20260506000354 | 49 | 358 | 0.0 | 0.0 | 0.00 | 0.51 | 0.51 | 97 | 1003.1 |
| 20260505235848 | 49 | 358 | 0.0 | 0.9 | 0.00 | 0.51 | 0.51 | 97 | 1003.0 |
| 20260505235346 | 49 | 358 | 0.0 | 0.0 | 0.00 | 0.51 | 0.51 | 97 | 1003.1 |
| 20260505234842 | 49 | 358 | 0.0 | 0.0 | 0.00 | 0.51 | 0.51 | 97 | 1002.7 |
| 20260505234340 | 49 | 350 | 0.9 | 0.9 | 0.00 | 0.51 | 0.51 | 97 | 1002.9 |
| 20260505233837 | 49 | 350 | 0.9 | 0.9 | 0.00 | 0.51 | 0.51 | 97 | 1003.0 |
| 20260505233335 | 49 | 350 | 0.0 | 0.9 | 0.00 | 0.51 | 0.51 | 97 | 1003.1 |
| 20260505232832 | 49 | 350 | 0.0 | 1.7 | 0.07 | 0.51 | 0.51 | 97 | 1003.1 |
| 20260505232330 | 49 | 347 | 0.0 | 0.9 | 0.07 | 0.51 | 0.51 | 97 | 1003.1 |
| 20260505231826 | 50 | 347 | 0.0 | 0.9 | 0.00 | 0.50 | 0.50 | 97 | 1003.5 |
| 20260505231324 | 50 | 348 | 0.9 | 1.7 | 0.12 | 0.50 | 0.50 | 96 | 1003.4 |
| 20260505230822 | 50 | 349 | 0.9 | 0.9 | 0.12 | 0.49 | 0.49 | 96 | 1003.6 |
| 20260505230319 | 50 | 353 | 0.0 | 0.0 | 0.12 | 0.48 | 0.48 | 96 | 1003.4 |
| 20260505225815 | 50 | 353 | 0.0 | 0.9 | 0.26 | 0.47 | 0.47 | 96 | 1003.6 |
| 20260505225313 | 50 | 354 | 1.7 | 1.7 | 0.35 | 0.46 | 0.46 | 96 | 1003.5 |
| 20260505224807 | 50 | 338 | 0.0 | 0.9 | 0.28 | 0.43 | 0.43 | 96 | 1003.6 |
| 20260505224306 | 50 | 340 | 1.7 | 2.6 | 0.12 | 0.40 | 0.40 | 96 | 1003.6 |
| 20260505223803 | 51 | 343 | 0.9 | 0.9 | 0.07 | 0.38 | 0.38 | 96 | 1003.3 |
| 20260505223300 | 51 | 352 | 2.6 | 4.3 | 0.07 | 0.38 | 0.38 | 96 | 1003.0 |
| 20260505222755 | 52 | 355 | 0.9 | 1.7 | 0.05 | 0.37 | 0.37 | 96 | 1003.0 |
| 20260505222251 | 52 | 24 | 1.7 | 2.6 | 0.12 | 0.37 | 0.37 | 96 | 1003.1 |
| 20260505221749 | 52 | 11 | 0.9 | 2.6 | 0.12 | 0.36 | 0.36 | 96 | 1003.1 |
| 20260505221245 | 52 | 24 | 0.9 | 0.9 | 0.12 | 0.35 | 0.35 | 96 | 1003.0 |
| 20260505220742 | 52 | 20 | 0.0 | 0.9 | 0.14 | 0.34 | 0.34 | 96 | 1003.0 |
| 20260505220239 | 53 | 21 | 0.9 | 1.7 | 0.07 | 0.33 | 0.33 | 96 | 1003.1 |
| 20260505215738 | 53 | 1 | 0.0 | 0.9 | 0.05 | 0.32 | 0.32 | 95 | 1002.9 |
| 20260505215235 | 53 | 1 | 0.9 | 1.7 | 0.12 | 0.32 | 0.32 | 95 | 1002.9 |
| 20260505214733 | 53 | 10 | 0.9 | 1.7 | 0.07 | 0.31 | 0.31 | 95 | 1002.7 |
| 20260505214230 | 53 | 14 | 1.7 | 1.7 | 0.12 | 0.30 | 0.30 | 95 | 1003.0 |
| 20260505213727 | 56 | 356 | 2.6 | 5.2 | 0.19 | 0.29 | 0.29 | 94 | 1002.9 |
| 20260505213224 | 57 | 302 | 0.0 | 0.9 | 0.12 | 0.27 | 0.27 | 95 | 1002.9 |
| 20260505212720 | 57 | 295 | 0.0 | 0.0 | 0.12 | 0.26 | 0.26 | 95 | 1002.5 |
| 20260505212218 | 57 | 294 | 0.0 | 0.0 | 0.12 | 0.25 | 0.25 | 95 | 1002.4 |
| 20260505211714 | 57 | 295 | 0.0 | 0.0 | 0.05 | 0.24 | 0.24 | 95 | 1002.7 |
| 20260505211212 | 57 | 295 | 0.0 | 0.9 | 0.19 | 0.23 | 0.23 | 95 | 1002.6 |
| 20260505210708 | 57 | 296 | 0.9 | 0.9 | 0.42 | 0.23 | 0.23 | 95 | 1002.4 |
| 20260505210205 | 57 | 296 | 0.0 | 0.9 | 0.42 | 0.20 | 0.20 | 94 | 1002.9 |
| 20260505205703 | 57 | 299 | 0.9 | 0.9 | 0.31 | 0.16 | 0.16 | 94 | 1002.6 |
| 20260505205201 | 57 | 301 | 0.0 | 0.0 | 0.35 | 0.13 | 0.13 | 94 | 1002.3 |
| 20260505204657 | 57 | 302 | 0.0 | 0.0 | 0.26 | 0.10 | 0.10 | 93 | 1002.6 |
| 20260505204155 | 57 | 298 | 0.0 | 0.0 | 0.07 | 0.07 | 0.07 | 93 | 1002.7 |
| 20260505203652 | 57 | 302 | 0.0 | 0.0 | 0.05 | 0.06 | 0.06 | 93 | 1002.5 |
| 20260505203148 | 58 | 302 | 0.0 | 0.0 | 0.05 | 0.06 | 0.06 | 93 | 1002.5 |
| 20260505202644 | 58 | 302 | 0.0 | 0.0 | 0.00 | 0.05 | 0.05 | 93 | 1002.6 |
| 20260505202140 | 58 | 302 | 0.0 | 0.0 | 0.12 | 0.05 | 0.05 | 92 | 1002.6 |
| 20260505201637 | 58 | 302 | 0.0 | 0.0 | 0.19 | 0.05 | 0.05 | 92 | 1002.4 |
| 20260505201135 | 58 | 302 | 0.0 | 0.0 | 0.07 | 0.03 | 0.03 | 91 | 1002.9 |
| 20260505200633 | 58 | 302 | 0.0 | 0.0 | 0.00 | 0.02 | 0.02 | 91 | 1002.4 |
| 20260505200129 | 58 | 302 | 0.0 | 0.0 | 0.00 | 0.02 | 0.02 | 90 | 1002.5 |
| 20260505195625 | 58 | 301 | 0.0 | 0.0 | 0.00 | 0.02 | 0.02 | 90 | 1002.6 |
| 20260505195123 | 58 | 301 | 0.0 | 1.7 | 0.05 | 0.02 | 0.02 | 89 | 1002.6 |
| 20260505194620 | 59 | 299 | 0.9 | 1.7 | 0.05 | 0.02 | 0.02 | 88 | 1003.0 |
| 20260505194116 | 59 | 300 | 0.9 | 1.7 | 0.00 | 0.01 | 0.01 | 86 | 1002.9 |
| 20260505193613 | 59 | 304 | 1.7 | 1.7 | 0.00 | 0.01 | 0.01 | 84 | 1002.6 |
| 20260505193110 | 60 | 304 | 2.6 | 1.7 | 0.00 | 0.01 | 0.01 | 82 | 1002.7 |
| 20260505192609 | 61 | 299 | 1.7 | 1.7 | 0.00 | 0.01 | 0.01 | 79 | 1002.9 |
| 20260505192106 | 62 | 284 | 0.9 | 1.7 | 0.00 | 0.01 | 0.01 | 76 | 1002.4 |
| 20260505191604 | 62 | 281 | 0.9 | 0.9 | 0.00 | 0.01 | 0.01 | 74 | 1002.4 |
| 20260505191101 | 62 | 281 | 1.7 | 1.7 | 0.00 | 0.01 | 0.01 | 72 | 1002.3 |
| 20260505190556 | 63 | 281 | 0.9 | 2.6 | 0.00 | 0.01 | 0.01 | 71 | 1002.6 |
| 20260505190052 | 63 | 281 | 0.0 | 0.0 | 0.00 | 0.01 | 0.01 | 70 | 1002.9 |
| 20260505185549 | 63 | 281 | 0.0 | 1.7 | 0.00 | 0.01 | 0.01 | 70 | 1002.6 |
| 20260505185045 | 64 | 280 | 0.0 | 0.9 | 0.00 | 0.01 | 0.01 | 68 | 1002.9 |
| 20260505184542 | 64 | 280 | 0.0 | 0.0 | 0.00 | 0.01 | 0.01 | 68 | 1002.6 |
| 20260505184039 | 64 | 278 | 0.9 | 1.7 | 0.00 | 0.01 | 0.01 | 67 | 1002.9 |
| 20260505183536 | 64 | 277 | 1.7 | 2.6 | 0.00 | 0.01 | 0.01 | 66 | 1002.6 |
| 20260505183033 | 64 | 268 | 0.9 | 1.7 | 0.00 | 0.01 | 0.01 | 67 | 1002.7 |
| 20260505182529 | 64 | 283 | 1.7 | 2.6 | 0.00 | 0.01 | 0.01 | 66 | 1002.9 |
| 20260505182026 | 64 | 288 | 1.7 | 1.7 | 0.00 | 0.01 | 0.01 | 66 | 1002.7 |
| 20260505181523 | 64 | 284 | 0.0 | 0.0 | 0.00 | 0.01 | 0.01 | 66 | 1002.9 |
| 20260505181021 | 64 | 276 | 0.9 | 2.6 | 0.00 | 0.01 | 0.01 | 66 | 1002.7 |
| 20260505180516 | 64 | 279 | 1.7 | 4.3 | 0.00 | 0.01 | 0.01 | 65 | 1002.6 |
| 20260505180015 | 64 | 291 | 0.9 | 1.7 | 0.00 | 0.01 | 0.01 | 66 | 1002.6 |
| 20260505175509 | 64 | 282 | 0.0 | 2.6 | 0.00 | 0.01 | 0.01 | 65 | 1002.7 |
| 20260505175006 | 64 | 283 | 1.7 | 1.7 | 0.00 | 0.01 | 0.01 | 65 | 1002.5 |
| 20260505174503 | 65 | 257 | 0.9 | 2.6 | 0.00 | 0.01 | 0.01 | 65 | 1002.4 |
| 20260505173959 | 65 | 298 | 0.9 | 1.7 | 0.00 | 0.01 | 0.01 | 64 | 1002.4 |
| 20260505173455 | 65 | 278 | 2.6 | 4.3 | 0.00 | 0.01 | 0.01 | 63 | 1002.5 |
| 20260505172952 | 65 | 276 | 0.9 | 2.6 | 0.00 | 0.01 | 0.01 | 63 | 1002.5 |
| 20260505172451 | 65 | 274 | 2.6 | 4.3 | 0.00 | 0.01 | 0.01 | 63 | 1002.6 |
| 20260505171950 | 65 | 280 | 3.5 | 4.3 | 0.00 | 0.01 | 0.01 | 63 | 1002.5 |
| 20260505171447 | 66 | 261 | 2.6 | 4.3 | 0.00 | 0.01 | 0.01 | 62 | 1002.3 |
| 20260505170944 | 66 | 290 | 2.6 | 4.3 | 0.00 | 0.01 | 0.01 | 61 | 1002.3 |
| 20260505170441 | 65 | 281 | 2.6 | 2.6 | 0.00 | 0.01 | 0.01 | 62 | 1002.4 |
| 20260505165936 | 65 | 278 | 1.7 | 1.7 | 0.00 | 0.01 | 0.01 | 62 | 1002.4 |
| 20260505165432 | 65 | 293 | 1.7 | 2.6 | 0.00 | 0.01 | 0.01 | 62 | 1002.3 |
| 20260505164927 | 65 | 289 | 0.0 | 0.9 | 0.00 | 0.01 | 0.01 | 61 | 1002.4 |
| 20260505164425 | 65 | 270 | 2.6 | 2.6 | 0.00 | 0.01 | 0.01 | 60 | 1002.4 |
| 20260505163922 | 66 | 285 | 2.6 | 4.3 | 0.00 | 0.01 | 0.01 | 60 | 1002.4 |
| 20260505163421 | 66 | 273 | 3.5 | 4.3 | 0.00 | 0.01 | 0.01 | 59 | 1002.3 |
| 20260505162920 | 66 | 265 | 3.5 | 4.3 | 0.00 | 0.01 | 0.01 | 59 | 1002.2 |
| 20260505162415 | 66 | 259 | 0.9 | 4.3 | 0.00 | 0.01 | 0.01 | 59 | 1002.3 |
| 20260505161912 | 67 | 270 | 2.6 | 2.6 | 0.00 | 0.01 | 0.01 | 59 | 1002.0 |
| 20260505161409 | 67 | 284 | 2.6 | 4.3 | 0.00 | 0.01 | 0.01 | 58 | 1002.1 |
| 20260505160907 | 67 | 271 | 2.6 | 4.3 | 0.00 | 0.01 | 0.01 | 56 | 1002.1 |
| 20260505160405 | 68 | 257 | 2.6 | 2.6 | 0.00 | 0.01 | 0.01 | 56 | 1002.2 |
| 20260505153343 | 69 | 258 | 2.6 | 4.3 | 0.00 | 0.01 | 0.01 | 53 | 1001.4 |
| 20260505152840 | 69 | 256 | 0.9 | 2.6 | 0.00 | 0.01 | 0.01 | 53 | 1001.2 |
| 20260505152337 | 69 | 258 | 2.6 | 4.3 | 0.00 | 0.01 | 0.01 | 54 | 1001.0 |
| 20260505151831 | 68 | 267 | 1.7 | 4.3 | 0.00 | 0.01 | 0.01 | 55 | 1001.1 |
| 20260505151328 | 68 | 263 | 1.7 | 4.3 | 0.00 | 0.01 | 0.01 | 55 | 1001.2 |
| 20260505150825 | 68 | 235 | 0.9 | 5.2 | 0.00 | 0.01 | 0.01 | 54 | 1001.3 |
| 20260505150322 | 68 | 269 | 1.7 | 4.3 | 0.00 | 0.01 | 0.01 | 55 | 1001.4 |
| 20260505140247 | 66 | 262 | 3.5 | 4.3 | 0.00 | 0.01 | 0.01 | 61 | 1001.0 |